Content
SEND FEEDBACK

Daily
Averages
Monthly
Summary
United States of America

PUT IN BAY, OHIO


Home > North America > United States > Ohio
Elevation: 561 feet     Latitude: 41 39N     Longitude: 082 48W

WEATHER
 
SELECT A DAY
Number of Records: 124,267;   Date Range: 12/10/00 - 9/29/14
 
SHARE

PRINT THIS DATA

[ ← Previous Day ]
WEATHER ALMANAC - DECEMBER 31, 2013
[ Next Day → ]
[ °C ]   °F
Weather ElementAverageHighLow
Temperature18.5 °F23 °F (1:00 am)16.2 °F (8:00 am)
Dewpoint12.1 °F17 °F (1:00 am)8.4 °F (11:00 am)
Humidity74.8 %88 % (11:00 pm)58 % (7:00 pm)
Barometer30.21 in30.35 in (11:00 pm)30.08 in (5:00 am)
Wind Speed12.7 mph19.6 mph (2:00 pm)
Wind Gust26.5 mph (2:00 pm)
Weather ElementAverage
Wind DirectionW (265.9 °)

Weather ElementTotal
Precipitation0.03 in
Heating Degree Days45.4 (Base 65)
Averaged from 27 records on December 31, 2013
WEATHER CONDITIONS BREAKOUT
WIND DIRECTION BREAKOUT
WEATHER BY HOUR - DECEMBER 31, 2013
[ °C ]   °F
Local TimeTemperatureDewpointHumidityBarometerVisibilityWind DirectionWind SpeedGust SpeedPrecipitationEventsConditions
1:00 AM23.0 °F17.0 °F68 %30.11 inWSW (250°)8.1 mph
1:00 AM22.6 °F16.9 °F79 %30.11 inWSW (250°)8.1 mph
2:00 AM21.7 °F16.9 °F82 %30.10 inWSW (250°)12.7 mph18.4 mph
3:00 AM19.9 °F16.0 °F85 %30.10 inWest (270°)11.5 mph17.3 mph
4:00 AM18.9 °F14.9 °F85 %30.09 inWest (260°)15.0 mph23.0 mph0.01 in
5:00 AM17.6 °F13.5 °F84 %30.08 inWest (270°)13.8 mph19.6 mph
6:00 AM16.9 °F12.7 °F84 %30.10 inWest (280°)12.7 mph20.7 mph0.01 in
7:00 AM17.0 °F11.0 °F66 %30.12 inWest (280°)13.8 mph
7:00 AM16.7 °F10.6 °F77 %30.12 inWest (280°)13.8 mph20.7 mph
8:00 AM16.2 °F11.3 °F81 %30.14 inWest (280°)13.8 mph20.7 mph
9:00 AM16.5 °F9.1 °F73 %30.17 inWest (280°)13.8 mph21.9 mph
10:00 AM17.2 °F9.7 °F72 %30.21 inWest (280°)12.7 mph19.6 mph
11:00 AM17.8 °F8.4 °F67 %30.24 inWest (280°)13.8 mph20.7 mph
12:00 PM18.3 °F11.3 °F74 %30.25 inWest (270°)13.8 mph21.9 mph
1:00 PM19.0 °F13.0 °F69 %30.27 inWest (260°)12.7 mph
1:00 PM19.0 °F13.3 °F78 %30.27 inWest (260°)12.7 mph23.0 mph
2:00 PM19.0 °F12.0 °F74 %30.27 inWSW (250°)19.6 mph26.5 mph
3:00 PM19.9 °F10.2 °F66 %30.27 inWest (260°)16.1 mph24.2 mph
4:00 PM19.8 °F11.1 °F69 %30.27 inWest (260°)12.7 mph18.4 mph
5:00 PM18.5 °F10.6 °F71 %30.28 inWSW (250°)12.7 mph19.6 mph
6:00 PM18.3 °F10.2 °F71 %30.29 inWSW (250°)13.8 mph19.6 mph
7:00 PM18.0 °F10.0 °F58 %30.31 inWest (260°)13.8 mph
7:00 PM18.3 °F9.7 °F69 %30.31 inWest (260°)13.8 mph19.6 mph
8:00 PM17.8 °F9.7 °F71 %30.32 inWest (280°)10.4 mph
9:00 PM17.8 °F11.3 °F76 %30.32 inWest (270°)9.2 mph
10:00 PM16.9 °F12.6 °F83 %30.33 inWest (270°)9.2 mph
11:00 PM16.7 °F13.6 °F88 %30.35 inWest (270°)9.2 mph0.01 in
Hourly data recorded from CXHA, located miles away from Put In Bay, Ohio







STORIES FROM OUR PARTNERS